Location: Boissi�res
(45.2500°N, 2.3667°E)
Time: 04:04:59
(UTC+00:00)

ISS - Pass Details

Date: 20 September 2021
Orbit: 417 x 423 km, 51.6° (Epoch: 20 October)

Event Time Altitude Azimuth Distance (km) Brightness Sun altitude
Rises 18:44:34 0° 243° (WSW) 2,353 0.9 -10.1°
Reaches altitude 10° 18:46:39 10° 244° (WSW) 1,493 -0.1 -10.4°
Maximum altitude 18:50:00 79° 331° (NNW) 431 -3.7 -11.0°
Enters shadow 18:53:14 11° 59° (ENE) 1,439 -1.5 -11.6°
